Weather in Mokhovo

Russia / Kemerovo Oblast     54°35′14″N   86°20′52″E
temp.,
°C
wind,
m/s
gust,
m/s
humid.,
%
clouds,
%
prec.,
mm/h
press.,
hPa
HPBL,
m
19 september, sun
sun1901:00+6wnw11815 0.0 101110
04:00+5sw2284100 0.0 101214
07:00+6ssw2579100 0.0 1011138
10:00+10ssw5960100 0.0 1010926
13:00+13ssw6845100 0.0 10081527
16:00+14sw5843100 0.0 10061666
19:00+12sse4951100 0.0 1004181
22:00+12wsw6125075 0.0 1004564
20 september, mon
mon2001:00+8wsw487293 0.0 1006538
04:00+7wsw5974100 0.1 1007577
07:00+6sw598295 0.4 1010576
10:00+6wsw5107390 0.3 10121174
13:00+9sw91349100 0.6 10122138
16:00+8sw81256100 0.1 10131688
19:00+7wsw4759100 0.2 1012490
22:00+4sw4983100 0.1 1012756
21 september, tue
tue2101:00+3wsw61095100 1.2 1012826
04:00+3sw51092100 1.1 1013714
07:00+3wsw6982100 1.2 10131007
10:00+3wsw698893 0.4 1015784
13:00+4wsw797099 0.6 10151181
16:00+4wsw71188100 0.3 10151052
19:00+3wsw51096100 0.5 1017609
22:00+3w5897100 0.4 1018602
22 september, wed
wed2201:00+3w489590 0.6 1019475
04:00+3wsw4889100 0.1 1019479
07:00+2sw4887100 0.3 1020350
10:00+4wsw5876100 0.2 1021784
13:00+6sw6764100 0.4 10201425
16:00+6wsw6764100 0.3 10201197
19:00+4wsw4674100 0.4 1021640
22:00+3ssw2484100 0.1 1021114
23 september, thu
thu2301:00+2sw2482100 0.1 1021160
04:00+1ssw3694100 0.0 1021309
07:00+1ssw3792100 0.1 1021401
10:00+2sw4692100 0.3 1022499
13:00+4sw4570100 0.6 10221039
16:00+5sw3468100 0.3 1022938
19:00+3sw227899 0.4 102330
22:00+1w118984 0.0 102410